Weather History for Weaverville, CA

Change the Weather History Date:

Saturday, December 15, 2012

  Actual Average (KRDD) Record (KRDD)
Temperature  
Mean Temperature 29 °F -  
Max Temperature 32 °F 54 °F 72 °F (1998)
Min Temperature 26 °F 36 °F 26 °F (2005)
Degree Days  
Heating Degree Days 36    
Cooling Degree Days 0    
Moisture  
Dew Point 30 °F    
Average Humidity 96    
Maximum Humidity 100    
Minimum Humidity 87    
Precipitation  
Precipitation 0.38 in 0.21 in 1.47 in (2009)
Month to date precipitation 2.82  
Year to date precipitation 31.17  
Since 1 July precipitation 10.31  
Sea Level Pressure  
Sea Level Pressure 29.98 in    
Wind  
Wind Speed 0 mph (North)    
Max Wind Speed 0 mph    
Max Gust Speed -    
Visibility 4 miles    
Events      
T = Trace of Precipitation, MM = Missing Value Source: NWS Daily Summary

Daily Weather History Graph

Daily Weather History Graph

Search for Another Location

Airport:

Trip Planner

Search our weather history database for the weather conditions in past years. The results will help you decide how hot, cold, wet, or windy it might be!

Date:

Astronomy

Dec. 15, 2012 Rise Set
Actual Time 7:29 AM PST 4:45 PM PST
Civil Twilight 6:58 AM PST 5:16 PM PST
Nautical Twilight 6:23 AM PST 5:50 PM PST
Astronomical Twilight 5:50 AM PST 6:24 PM PST
Moon 9:25 AM PST (12/15) 7:56 PM PST (12/15)
Length of Visible Light 10h 18m
Length of Day
9h 16m
Waxing Crescent, 9% of the Moon is Illuminated
Dec 15
Waxing Crescent
Dec 19
First Quarter
Dec 28
Full
Jan 4
Last Quarter
Jan 11
New

Hourly Weather History & Observations

Time (PST) Temp. Dew Point Humidity Pressure Visibility Wind Dir Wind Speed Gust Speed Precip Events Conditions
12:15 AM 26.6 °F 24.8 °F 93% 30.02 in 9.0 mi Calm Calm - N/A   Unknown
12:35 AM 26.6 °F 26.6 °F 100% 30.00 in 7.0 mi Calm Calm - N/A   Unknown
12:55 AM 28.4 °F 26.6 °F 93% 30.00 in 6.0 mi Calm Calm - N/A   Unknown
1:15 AM 28.4 °F 26.6 °F 93% 30.00 in 8.0 mi Calm Calm - N/A   Unknown
1:35 AM 28.4 °F 26.6 °F 93% 30.00 in 10.0 mi Calm Calm - N/A   Unknown
1:55 AM 28.4 °F 26.6 °F 93% 29.99 in 10.0 mi Calm Calm - N/A   Unknown
2:15 AM 28.4 °F 26.6 °F 93% 30.00 in 10.0 mi Calm Calm - N/A   Unknown
2:35 AM 28.4 °F 28.4 °F 100% 30.00 in 10.0 mi Calm Calm - N/A   Unknown
2:55 AM 30.2 °F 28.4 °F 93% 29.99 in 10.0 mi Calm Calm - N/A   Unknown
3:15 AM 30.2 °F 28.4 °F 93% 29.99 in 10.0 mi Calm Calm - N/A   Unknown
3:35 AM 30.2 °F 28.4 °F 93% 29.99 in 9.0 mi Calm Calm - N/A   Unknown
3:55 AM 30.2 °F 28.4 °F 93% 29.98 in 9.0 mi Calm Calm - N/A   Unknown
4:15 AM 30.2 °F 28.4 °F 93% 29.98 in 10.0 mi Calm Calm - N/A   Unknown
4:35 AM 30.2 °F 28.4 °F 93% 29.97 in 10.0 mi Calm Calm - N/A   Unknown
4:55 AM 30.2 °F 28.4 °F 93% 29.97 in 5.0 mi Calm Calm - N/A   Unknown
5:15 AM 30.2 °F 28.4 °F 93% 29.97 in 7.0 mi Calm Calm - N/A   Unknown
5:35 AM 30.2 °F 28.4 °F 93% 29.97 in 10.0 mi Calm Calm - N/A   Unknown
5:55 AM 30.2 °F 28.4 °F 93% 29.98 in 10.0 mi Calm Calm - N/A   Unknown
6:15 AM 32.0 °F 28.4 °F 87% 29.97 in 9.0 mi Calm Calm - N/A   Unknown
6:35 AM 32.0 °F 28.4 °F 87% 29.97 in 7.0 mi Calm Calm - N/A   Unknown
6:55 AM 30.2 °F 28.4 °F 93% 29.98 in 7.0 mi Calm Calm - N/A   Unknown
7:15 AM 30.2 °F 28.4 °F 93% 29.98 in 5.0 mi Calm Calm - N/A   Unknown
7:35 AM 30.2 °F 28.4 °F 93% 29.98 in 3.0 mi Calm Calm - N/A   Unknown
7:55 AM 30.2 °F 28.4 °F 93% 29.99 in 3.0 mi Calm Calm - N/A   Unknown
8:15 AM 30.2 °F 28.4 °F 93% 29.99 in 4.0 mi Calm Calm - N/A   Unknown
8:35 AM 30.2 °F 28.4 °F 93% 29.99 in 1.0 mi Calm Calm - N/A   Unknown
8:55 AM 32.0 °F 28.4 °F 87% 29.99 in 1.0 mi Calm Calm - N/A   Unknown
9:15 AM 32.0 °F 28.4 °F 87% 29.99 in 1.0 mi Calm Calm - N/A   Unknown
9:35 AM 32.0 °F 30.2 °F 93% 29.99 in 1.0 mi Calm Calm - 0.02 in   Unknown
9:55 AM 32.0 °F 30.2 °F 93% 30.00 in 0.8 mi Calm Calm - 0.03 in   Unknown
10:15 AM 32.0 °F 30.2 °F 93% 30.00 in 3.0 mi Calm Calm - 0.01 in   Unknown
10:35 AM 32.0 °F 30.2 °F 93% 30.00 in 3.0 mi Calm Calm - 0.01 in   Unknown
10:55 AM 32.0 °F 30.2 °F 93% 29.99 in 1.8 mi Calm Calm - 0.02 in   Unknown
11:15 AM 32.0 °F 30.2 °F 93% 29.98 in 0.5 mi Calm Calm - 0.01 in   Unknown
11:35 AM 32.0 °F 30.2 °F 93% 29.97 in 0.5 mi Calm Calm - 0.02 in   Unknown
11:55 AM 32.0 °F 32.0 °F 100% 29.97 in - Calm Calm - 0.02 in   Unknown
12:15 PM 32.0 °F 32.0 °F 100% 29.97 in - Calm Calm - 0.01 in   Unknown
12:35 PM 32.0 °F 32.0 °F 100% 29.96 in - Calm Calm - 0.02 in   Unknown
1:15 PM 32.0 °F 32.0 °F 100% 29.95 in - Calm Calm - 0.02 in   Unknown
1:35 PM 32.0 °F 32.0 °F 100% 29.95 in 1.5 mi Calm Calm - 0.05 in   Unknown
1:55 PM 32.0 °F 32.0 °F 100% 29.94 in 1.0 mi Calm Calm - 0.07 in   Unknown
2:15 PM 32.0 °F 32.0 °F 100% 29.95 in 0.8 mi Calm Calm - 0.02 in   Unknown
2:35 PM 32.0 °F 32.0 °F 100% 29.94 in 1.0 mi Calm Calm - 0.04 in   Unknown
2:55 PM 32.0 °F 32.0 °F 100% 29.94 in 0.8 mi Calm Calm - 0.06 in   Unknown
3:15 PM 32.0 °F 32.0 °F 100% 29.94 in 0.8 mi Calm Calm - N/A   Unknown
3:35 PM 32.0 °F 32.0 °F 100% 29.95 in 0.2 mi Calm Calm - 0.02 in   Unknown
3:55 PM 32.0 °F 32.0 °F 100% 29.95 in 0.5 mi Calm Calm - 0.03 in   Unknown
4:15 PM 32.0 °F 32.0 °F 100% 29.95 in 0.2 mi Calm Calm - N/A   Unknown
4:35 PM 32.0 °F 32.0 °F 100% 29.94 in 0.8 mi Calm Calm - 0.01 in   Unknown
4:55 PM 32.0 °F 32.0 °F 100% 29.95 in 0.8 mi Calm Calm - 0.02 in   Unknown
5:15 PM 32.0 °F 32.0 °F 100% 29.95 in 1.2 mi Calm Calm - N/A   Unknown
5:35 PM 32.0 °F 32.0 °F 100% 29.96 in 1.2 mi Calm Calm - 0.02 in   Unknown
5:55 PM 32.0 °F 32.0 °F 100% 29.96 in 1.0 mi Calm Calm - 0.02 in   Unknown
6:15 PM 32.0 °F 32.0 °F 100% 29.96 in 1.8 mi Calm Calm - 0.01 in   Unknown
6:35 PM 32.0 °F 32.0 °F 100% 29.96 in 0.5 mi Calm Calm - 0.02 in   Unknown
6:55 PM 32.0 °F 32.0 °F 100% 29.97 in 0.5 mi Calm Calm - 0.03 in   Unknown
7:15 PM 32.0 °F 32.0 °F 100% 29.97 in 0.8 mi Calm Calm - 0.01 in   Unknown
7:35 PM 32.0 °F 32.0 °F 100% 29.97 in 0.8 mi Calm Calm - 0.02 in   Unknown
7:55 PM 32.0 °F 32.0 °F 100% 29.98 in 0.8 mi Calm Calm - 0.03 in   Unknown
8:15 PM 32.0 °F 32.0 °F 100% 29.99 in 0.5 mi Calm Calm - 0.01 in   Unknown
8:35 PM 32.0 °F 32.0 °F 100% 29.99 in 0.8 mi Calm Calm - 0.02 in   Unknown
8:55 PM 32.0 °F 32.0 °F 100% 29.99 in 0.2 mi Calm Calm - 0.02 in   Unknown
9:15 PM 32.0 °F 32.0 °F 100% 30.00 in 0.8 mi Calm Calm - N/A   Unknown
9:35 PM 32.0 °F 32.0 °F 100% 30.00 in 1.2 mi Calm Calm - 0.01 in   Unknown
9:55 PM 32.0 °F 32.0 °F 100% 30.01 in 0.5 mi Calm Calm - 0.01 in   Unknown
10:15 PM 32.0 °F 32.0 °F 100% 30.01 in 0.5 mi Calm Calm - N/A   Unknown
10:35 PM 32.0 °F 32.0 °F 100% 30.01 in 0.8 mi Calm Calm - N/A   Unknown
10:55 PM 32.0 °F 32.0 °F 100% 30.01 in 1.8 mi Calm Calm - N/A   Unknown
11:15 PM 32.0 °F 32.0 °F 100% 30.01 in 1.0 mi Calm Calm - N/A   Unknown
11:35 PM 32.0 °F 32.0 °F 100% 30.02 in 1.2 mi Calm Calm - N/A   Unknown
11:55 PM 32.0 °F 32.0 °F 100% 30.02 in 0.8 mi Calm Calm - N/A   Unknown